Theta_e
328 328 328 328 328 328 328 327 326 325 326 326 326 325 325 324 323 323 323 322 321 320 318 317 315 311 308 307 307 307 308 308 307 307 308 307 305 304 303 303 303 305 306 307 306 305 304 305 305 307 308 310 311 312 312 312 313 312 312 312 312 312 312 312 312 312 313 313 312 312 312 312 312 312
327 327 327 327 327 328 328 327 326 325 326 326 326 326 326 325 324 323 323 322 320 319 319 317 314 311 308 307 307 308 309 309 308 307 308 307 306 304 303 303 303 305 306 307 307 306 306 306 307 308 311 312 312 312 312 312 312 312 313 313 312 312 312 312 313 313 313 313 313 313 313 313 313 312
327 327 326 327 327 327 328 327 326 326 326 327 326 326 326 325 324 323 323 322 320 317 317 317 313 310 308 308 307 308 309 309 308 307 308 308 307 306 305 304 303 304 306 307 308 308 307 307 308 310 312 312 312 312 312 312 312 312 312 313 312 312 313 313 313 313 313 313 313 313 312 312 312 312
327 327 327 327 327 327 327 327 326 325 326 327 327 326 326 325 325 324 323 323 321 318 315 314 312 309 309 308 307 307 308 308 308 307 307 307 307 307 306 306 305 304 305 306 308 309 308 307 309 311 312 312 312 312 312 312 312 312 312 312 312 313 312 313 313 313 313 313 313 313 312 312 312 312
327 327 327 328 327 326 326 326 326 325 326 326 327 326 326 326 325 324 324 323 323 321 316 312 310 309 309 308 307 307 308 308 307 307 307 307 307 307 307 307 306 305 305 306 307 309 309 308 309 311 312 312 312 312 312 312 312 312 312 312 312 313 313 313 313 313 313 313 313 313 313 313 313 312
328 327 327 328 328 327 326 326 326 326 325 326 326 326 325 325 325 325 325 324 323 322 319 314 311 310 309 309 308 307 307 308 308 307 307 307 307 307 308 308 308 307 306 306 307 308 309 309 310 311 312 312 312 312 312 312 312 312 312 312 312 312 312 313 313 313 313 313 313 313 313 313 313 313
328 327 327 328 328 327 327 327 326 326 326 326 326 326 325 325 325 325 325 324 324 323 321 318 314 311 310 310 309 308 308 308 309 309 308 308 308 308 308 308 308 308 307 307 306 307 308 309 310 311 312 312 312 312 312 312 312 312 312 312 312 312 312 312 312 312 312 313 313 313 313 313 313 313
328 328 328 328 328 328 327 327 327 326 326 326 326 325 325 325 325 325 325 325 324 323 322 321 317 313 311 311 310 309 309 309 309 310 310 309 309 308 308 309 309 309 308 308 307 307 307 308 310 311 311 312 312 312 312 312 312 312 312 312 312 312 312 312 312 312 312 312 313 313 313 313 313 313
328 328 328 328 327 327 327 328 327 327 326 326 325 325 325 325 325 325 325 325 324 323 323 322 320 316 313 312 311 310 309 309 309 310 310 310 310 309 309 309 310 310 309 309 309 309 309 309 310 310 310 311 312 312 312 312 312 312 312 312 313 313 313 313 312 312 312 312 312 313 313 313 313 313
328 328 328 327 327 327 327 327 327 327 327 326 326 325 325 325 325 324 325 325 324 324 323 321 319 318 317 318 317 313 311 310 309 310 310 311 311 311 311 311 311 311 311 311 311 311 311 311 311 311 311 311 311 312 312 312 312 312 313 313 313 313 313 313 313 313 313 313 312 312 312 312 312 312
327 327 327 327 327 327 326 327 326 326 325 325 325 325 325 324 324 325 325 325 325 324 323 320 319 320 321 322 320 317 313 311 310 310 310 310 311 312 312 312 311 312 312 312 312 312 312 312 312 312 312 312 312 312 312 312 312 312 312 313 313 313 313 313 313 313 313 313 313 313 313 312 312 312
327 327 327 327 327 327 327 326 326 325 325 324 324 325 324 324 324 325 325 325 325 325 323 321 320 321 322 321 319 316 314 312 311 310 310 311 311 312 313 313 313 313 313 313 313 313 313 313 313 313 313 313 313 313 313 313 313 313 313 313 313 313 313 313 313 313 313 313 313 313 313 313 312 311
326 326 326 326 327 326 326 326 326 326 325 325 325 324 324 324 325 325 325 325 325 325 324 323 321 322 322 320 317 315 313 312 311 311 311 311 312 312 313 313 313 313 313 313 313 313 313 313 313 313 313 313 313 313 313 313 313 314 313 314 314 313 314 314 314 314 313 313 313 313 312 313 313 311
326 326 326 326 326 326 326 326 326 326 324 324 324 324 324 324 325 325 325 324 324 324 324 323 322 322 321 318 315 314 314 313 312 311 311 312 312 312 312 313 313 313 313 313 313 313 313 313 313 313 314 314 314 314 314 314 314 314 314 314 314 314 315 315 315 314 314 314 314 313 313 312 312 312
326 326 326 327 326 326 326 326 326 326 324 323 323 324 324 324 325 325 324 323 322 323 323 323 322 322 319 316 314 314 314 313 312 312 312 312 313 312 313 314 314 313 313 313 313 314 313 313 314 314 315 315 315 315 315 315 315 315 315 315 315 315 315 315 315 315 315 315 315 314 313 313 313 313
326 326 326 326 325 324 324 324 325 325 325 324 324 324 324 325 324 324 324 323 322 323 323 323 322 321 318 316 314 314 314 313 313 312 312 312 313 313 313 313 313 313 313 313 314 314 314 314 314 314 315 315 316 316 316 316 316 316 316 316 316 316 316 316 316 317 317 316 316 315 314 314 314 314
326 326 326 325 324 323 323 323 324 325 325 325 324 324 325 325 324 324 323 322 322 322 322 322 322 320 318 315 314 314 313 313 313 312 312 312 312 313 313 313 314 314 314 314 314 315 315 315 316 316 316 316 316 317 317 316 316 316 316 316 316 316 316 316 316 316 316 316 316 316 316 315 315 314
326 326 325 324 323 322 322 322 323 325 325 324 324 324 324 324 323 322 321 321 321 321 320 319 319 318 317 315 313 313 313 313 313 313 313 313 313 314 315 315 316 316 316 316 316 317 317 317 316 316 316 316 316 316 316 315 315 315 315 315 315 315 315 315 315 315 315 315 315 315 315 314 313 312
326 325 325 324 323 322 321 320 321 323 323 323 323 323 323 322 321 320 319 319 319 319 318 317 317 316 315 314 314 314 314 314 314 314 315 315 316 316 317 317 316 316 316 316 316 316 316 316 316 316 315 315 315 315 315 315 315 314 314 314 314 314 314 314 314 314 314 314 313 312 312 311 310 310
324 324 324 323 322 322 321 320 320 320 321 321 321 320 320 320 319 319 319 318 318 317 316 316 316 315 315 315 315 315 316 316 316 316 317 316 316 316 316 316 316 315 315 316 315 315 315 315 315 315 314 314 313 313 312 311 310 309 309 309 309 310 311 312 312 312 312 311 311 311 311 311 312 312
322 322 322 321 322 322 321 320 319 319 319 319 319 318 319 318 318 318 318 318 318 318 317 316 316 316 316 317 317 316 317 317 316 316 317 316 316 316 316 316 316 316 315 315 315 314 313 312 312 311 310 310 309 309 309 308 308 308 307 307 307 308 308 308 309 309 309 309 310 311 312 312 312 312
320 321 321 321 321 321 321 320 319 319 319 319 318 318 317 317 317 317 317 317 317 318 317 316 316 316 316 316 316 316 316 316 316 316 316 316 315 315 314 314 314 313 312 311 311 310 309 308 308 308 307 307 307 307 308 308 308 308 308 307 307 307 307 307 307 308 308 309 310 312 313 312 311 311
320 320 321 322 321 320 320 319 319 319 319 318 318 317 316 316 316 316 317 317 316 317 316 316 316 316 315 316 316 316 316 316 316 315 314 314 313 312 310 309 309 308 307 307 307 306 306 306 305 306 306 306 306 306 306 306 306 305 305 305 305 306 306 307 307 307 307 308 309 311 311 310 310 309
320 320 320 320 320 319 319 319 319 319 319 318 317 317 317 318 318 318 318 318 318 317 317 317 317 317 316 315 315 314 313 313 312 312 311 310 309 308 306 305 305 304 304 304 304 303 303 303 302 302 303 304 305 306 304 304 305 305 305 305 306 306 306 307 307 307 307 307 308 308 308 309 308 308
320 319 319 319 319 319 319 319 319 318 318 318 318 318 317 318 318 317 317 317 316 316 315 315 315 314 313 312 311 310 309 308 308 307 306 305 305 304 303 303 302 302 301 301 301 300 300 299 299 299 299 301 302 304 303 304 305 305 305 305 305 305 306 306 306 306 306 306 306 306 307 307 307 307
319 319 319 319 319 318 318 318 318 318 318 317 317 317 317 316 315 314 312 311 311 310 310 309 309 308 308 307 306 306 305 305 304 304 303 302 302 301 301 300 299 299 298 298 298 298 298 298 298 298 298 299 301 302 303 304 305 305 305 304 304 304 304 304 304 304 303 303 304 305 305 306 306 306
318 318 318 318 317 317 317 316 316 316 316 316 315 314 313 312 311 310 308 307 306 306 305 305 305 304 304 304 304 303 303 303 302 301 300 299 299 298 298 297 297 297 297 297 297 297 297 297 298 298 299 301 302 302 303 304 304 304 304 304 303 303 303 303 302 301 301 302 303 304 305 305 305 305
317 317 317 317 317 316 315 315 314 314 313 314 314 312 310 309 307 306 306 305 304 304 303 303 303 302 302 302 302 301 300 300 299 298 297 297 296 296 296 296 296 296 296 296 296 297 297 297 297 298 299 301 302 302 303 303 303 303 303 303 302 302 302 301 301 301 301 302 303 304 304 304 304 304
316 316 316 315 315 315 314 312 312 312 312 312 312 311 309 307 305 304 304 303 303 303 302 302 301 301 300 300 299 298 298 297 296 296 296 296 296 296 296 296 296 296 296 297 297 297 297 297 297 298 300 301 302 303 303 303 302 302 301 301 301 301 301 301 301 301 301 302 303 303 303 303 303 303
313 314 314 313 313 313 312 309 309 311 310 310 309 309 308 306 304 303 302 302 302 301 301 300 300 299 298 298 297 296 296 296 296 295 295 296 296 296 296 297 297 297 297 297 297 297 297 297 297 298 300 301 302 302 301 300 299 299 299 299 299 300 300 301 301 301 301 302 302 302 302 302 302 301
309 310 310 309 309 309 309 307 307 308 308 307 307 307 306 304 302 301 301 301 300 300 299 299 298 297 296 296 295 295 295 296 296 296 296 296 296 296 297 297 297 297 297 297 297 297 297 297 298 298 300 300 301 300 299 298 298 298 298 299 299 299 300 300 301 301 301 301 301 301 301 301 301 299
305 306 306 305 305 305 306 305 305 305 304 304 304 303 302 302 301 301 300 300 299 298 298 297 296 295 295 295 295 296 296 296 296 296 296 297 297 297 297 297 297 297 297 297 297 297 297 297 298 299 299 299 299 298 297 297 297 298 298 298 299 299 299 300 300 300 300 300 300 300 300 300 300 298
302 302 303 303 303 303 303 303 302 302 302 302 302 301 301 300 300 299 298 298 297 296 296 295 295 295 296 296 296 296 296 296 296 297 297 297 297 297 297 297 297 297 297 296 296 296 297 297 297 298 298 298 298 297 297 297 297 297 297 297 298 298 298 299 299 299 300 299 299 299 300 299 298 298
300 301 301 302 302 302 302 301 301 301 300 300 300 299 299 298 297 297 296 296 295 295 295 295 296 296 296 296 296 296 296 296 296 296 296 296 296 296 296 296 296 296 296 296 296 296 296 296 296 297 297 297 297 297 296 296 297 297 297 297 297 297 297 298 298 298 299 299 299 299 299 298 298 298
301 301 301 301 301 301 301 300 300 299 298 298 297 297 296 296 296 295 295 295 295 295 296 296 296 296 296 296 296 296 296 296 296 296 296 296 296 296 296 296 296 296 296 296 295 295 295 295 295 295 296 296 295 296 296 296 296 296 296 296 297 296 296 297 297 297 298 298 298 298 298 297 297 297
301 301 301 301 300 300 299 299 298 297 296 295 295 295 295 295 295 295 295 295 296 296 296 296 296 296 296 296 296 296 296 296 295 295 295 295 295 295 295 295 295 295 295 294 294 294 294 294 295 295 295 295 295 295 295 296 296 296 296 296 296 296 296 296 297 297 297 297 297 297 296 296 296 296
301 300 300 300 299 299 298 297 297 296 295 295 295 295 295 295 296 296 295 295 295 295 295 295 295 295 295 295 295 295 295 295 295 294 294 294 294 294 294 294 294 293 294 294 294 294 294 294 294 294 294 294 294 294 295 295 295 295 296 296 296 296 296 296 296 296 296 296 296 296 296 296 296 296
300 300 299 299 298 298 296 295 295 295 295 295 295 295 295 295 295 295 295 295 295 295 295 295 295 295 295 294 294 294 294 294 294 294 294 294 293 293 293 293 293 293 293 293 293 293 293 293 293 294 294 293 293 294 294 294 295 295 295 295 295 295 296 296 295 295 295 295 295 295 295 295 295 295
299 299 298 297 297 296 295 295 295 295 295 295 295 295 295 295 295 295 295 295 295 295 294 294 294 294 294 294 293 293 293 293 293 293 292 292 292 292 292 292 292 292 292 292 292 292 293 293 293 293 293 293 293 293 293 293 294 294 295 295 295 295 295 295 295 295 295 295 295 295 295 295 295 295
298 297 296 296 295 295 295 295 295 295 295 295 295 295 295 295 295 295 294 294 294 294 294 293 293 293 293 293 292 292 292 292 292 291 291 291 291 291 291 291 292 292 292 292 292 292 293 293 293 293 293 293 293 293 293 293 293 293 294 294 295 295 294 294 294 294 294 294 294 294 294 294 294 294
297 296 295 295 295 295 295 295 295 295 295 295 295 295 295 294 294 294 294 293 293 293 293 292 292 292 292 291 291 291 291 291 290 290 290 290 291 291 291 291 291 292 292 292 292 293 293 293 293 293 293 293 294 293 293 293 293 293 293 294 294 294 294 293 293 294 294 294 294 294 294 293 293 293
295 295 295 295 295 295 295 295 295 295 295 294 294 294 294 294 293 293 293 292 292 292 291 291 291 291 290 290 290 290 290 290 290 290 290 290 290 290 291 291 291 292 292 293 292 292 293 293 293 293 293 293 294 293 293 293 293 294 294 294 294 294 293 293 293 293 294 294 293 293 293 292 292 292
294 294 295 294 294 294 294 294 294 294 294 294 294 293 293 293 292 292 292 291 291 291 290 290 290 290 289 289 289 289 289 289 289 290 290 290 290 290 291 291 291 291 291 292 292 292 292 292 293 293 293 293 294 294 293 293 293 294 294 294 294 294 293 293 293 293 293 293 293 292 292 292 292 292
294 294 294 294 294 294 294 294 293 293 293 293 292 292 292 292 291 291 291 290 290 290 290 289 289 289 289 289 289 289 289 289 289 289 290 290 290 290 290 291 291 291 291 291 292 291 291 291 291 292 293 293 294 294 294 294 294 294 294 294 294 294 294 294 293 293 293 293 293 293 292 292 292 293
293 293 293 293 293 293 293 293 293 293 292 292 291 291 291 290 290 290 290 290 290 290 289 289 289 289 289 289 289 289 289 289 289 289 289 290 290 290 290 290 290 291 291 291 291 291 290 291 291 292 293 294 294 294 294 294 294 294 294 294 294 294 294 294 294 293 293 293 293 293 293 293 293 293
Wind_Speed
18 18 18 19 19 19 18 16 14 14 14 14 16 17 15 15 17 17 16 15 14 14 14 12 11 11 10 10 10 9 8 6 6 6 5 4 4 5 6 6 5 5 4 4 4 4 3 3 3 4 4 4 4 4 5 5 6 7 8 8 9 10 10 10 11 12 13 14 15 15 15 16 17 17
19 19 20 20 20 20 19 16 14 14 15 14 15 16 14 14 15 14 13 11 9 11 13 11 11 11 11 11 11 10 9 7 7 6 5 4 4 6 7 7 7 6 6 5 5 5 4 3 3 3 3 2 2 2 3 4 5 6 7 7 8 8 8 9 10 11 11 12 13 13 13 14 14 15
20 21 21 21 21 20 19 17 16 15 16 15 14 15 14 14 14 13 12 11 7 6 7 9 10 10 11 11 11 11 10 8 8 7 7 6 6 7 8 8 8 8 7 7 7 6 5 4 4 3 3 2 1 2 2 3 4 5 5 6 6 7 8 9 10 10 11 12 12 13 13 13 13 13
21 21 21 20 20 20 20 19 18 16 16 16 15 15 14 14 14 13 13 13 10 5 2 8 11 10 10 11 11 11 11 9 8 9 9 9 9 8 9 9 10 10 9 9 8 7 6 6 5 5 4 4 4 4 4 5 5 5 6 6 6 7 8 9 10 11 12 13 13 14 14 14 14 14
22 21 20 20 20 20 20 20 19 18 17 17 17 16 15 15 15 15 14 13 12 8 5 8 12 12 11 11 11 12 11 10 9 9 10 10 10 9 9 10 11 11 11 11 10 9 8 7 7 7 7 7 7 7 7 7 8 8 8 8 8 9 10 11 12 13 13 14 14 15 15 16 16 16
22 21 20 20 21 21 21 20 19 18 17 18 18 17 16 16 16 16 15 15 14 12 9 9 11 13 12 11 11 11 11 10 9 9 9 10 9 9 10 10 11 12 12 12 12 11 9 9 10 9 9 9 9 9 9 9 10 10 10 10 11 11 12 13 14 14 15 15 15 16 16 17 17 17
21 21 20 20 21 22 21 21 20 19 18 18 18 18 17 17 17 17 17 17 16 15 13 11 11 12 13 12 11 11 10 10 10 10 10 10 10 10 11 11 12 12 13 14 14 13 12 11 12 11 11 11 11 11 11 12 12 13 13 13 14 14 15 16 17 17 18 18 17 18 18 19 19 19
22 21 21 21 21 21 20 20 20 20 19 18 18 18 18 18 19 19 19 19 18 17 16 14 13 13 14 13 12 12 12 12 12 11 11 11 12 12 13 13 12 13 14 14 15 15 14 14 14 14 14 14 14 14 14 14 15 15 16 17 17 18 18 19 19 20 20 21 21 21 21 21 21 21
22 22 22 22 21 21 20 21 21 21 20 20 20 20 19 19 19 20 20 20 20 19 18 16 16 15 15 15 14 14 14 15 14 13 12 13 13 13 14 14 13 13 14 15 15 15 15 15 16 17 17 17 17 17 17 18 18 19 19 19 20 21 21 22 22 23 23 24 24 24 24 24 24 23
22 22 23 22 21 21 21 21 22 22 22 22 22 22 21 20 20 21 21 21 21 21 19 18 18 17 16 15 16 16 17 17 16 15 14 14 13 13 13 14 14 13 14 14 14 14 14 15 16 18 19 20 20 20 21 21 22 22 22 22 23 23 24 25 25 26 27 27 28 28 28 28 28 27
21 22 22 21 20 20 20 20 20 21 22 23 23 24 22 21 20 21 21 22 23 22 21 20 19 18 17 17 17 18 18 19 19 18 18 16 14 13 12 12 13 13 13 14 14 14 15 15 17 18 19 20 21 22 23 24 25 25 25 26 26 27 28 28 29 29 30 31 31 31 32 32 31 31
20 20 19 18 18 18 18 18 19 20 21 22 24 25 24 22 22 21 21 22 23 23 22 22 22 20 19 19 19 19 19 20 21 21 19 17 15 14 13 12 13 14 15 15 16 16 17 17 18 19 20 21 22 23 24 26 27 27 28 29 29 30 31 32 32 33 33 33 34 34 34 34 33 33
18 18 17 16 16 17 17 17 19 20 21 21 23 24 23 23 23 22 22 22 23 24 24 25 24 23 21 21 20 19 19 19 20 19 19 18 16 16 16 15 15 16 17 18 18 18 19 20 20 21 22 22 23 24 25 26 27 28 29 31 31 32 32 32 32 32 33 33 33 33 33 34 33 32
18 17 17 16 15 16 16 16 18 18 18 18 19 19 20 21 22 21 21 21 22 23 25 27 26 25 22 21 20 19 18 18 18 18 18 18 17 17 18 17 16 17 18 19 20 20 20 21 22 22 22 22 22 23 24 25 26 27 28 29 30 30 30 30 31 31 31 32 32 32 32 31 30 30
17 17 16 15 16 16 15 15 16 15 15 16 17 17 18 19 19 19 18 18 20 22 24 25 25 24 22 20 20 19 18 18 18 19 19 18 18 18 19 18 18 18 18 19 21 21 21 22 22 23 23 22 22 23 24 25 26 27 27 28 28 29 30 31 31 31 32 32 32 32 30 27 27 30
18 18 17 16 16 15 15 15 15 15 15 15 16 16 16 17 17 17 17 17 20 22 22 22 23 22 21 20 20 20 20 19 19 19 20 20 20 20 20 20 20 20 19 21 23 24 24 25 25 24 24 23 24 25 26 27 28 28 29 29 30 30 31 31 32 32 33 33 32 31 29 27 27 29
19 19 18 17 16 15 14 14 14 14 14 14 14 14 14 15 16 16 16 16 18 20 20 20 21 21 21 20 20 20 21 20 20 20 21 21 21 22 22 22 23 23 23 23 23 24 24 24 24 24 23 23 25 26 27 27 28 29 29 30 30 31 31 32 33 33 33 32 30 30 28 27 26 25
20 20 18 17 16 14 13 12 12 12 12 12 12 12 13 14 14 15 15 15 17 19 19 19 20 20 20 20 20 20 21 21 21 21 22 22 23 23 23 22 21 20 20 20 20 21 21 21 23 24 24 25 26 27 27 28 29 29 29 30 30 30 31 31 32 32 31 29 28 27 26 25 24 24
20 20 19 17 16 15 13 11 10 10 10 10 10 9 10 12 12 13 13 12 16 18 18 18 19 19 19 19 19 19 19 19 20 20 21 21 21 20 19 18 17 16 17 19 22 23 22 22 25 26 26 27 28 28 28 28 28 28 28 28 28 28 27 28 27 27 26 25 24 24 24 25 25 26
18 19 19 18 17 15 13 12 11 9 9 8 8 7 7 8 10 11 9 9 11 13 14 15 15 15 15 15 15 15 15 16 17 18 18 17 15 16 16 17 19 19 20 22 24 25 24 23 25 26 26 27 28 27 27 27 27 27 26 25 25 25 25 25 24 24 24 24 25 26 26 26 27 28
17 17 18 18 18 17 15 13 12 10 9 8 7 7 7 7 9 9 8 8 9 8 9 10 11 12 13 12 13 13 13 14 14 15 15 13 13 15 16 16 18 18 19 21 22 23 23 22 24 26 25 26 27 27 26 26 26 26 25 26 26 27 27 28 28 28 29 28 28 28 28 28 29 29
17 16 17 18 18 17 16 14 12 11 10 9 8 7 7 7 8 8 8 9 10 10 10 9 9 10 9 9 10 10 9 11 12 11 11 12 12 14 14 14 16 17 18 19 20 21 22 21 22 25 26 26 26 26 24 23 23 24 25 26 27 27 28 28 29 30 30 30 30 29 29 29 29 29
17 16 16 18 18 17 15 14 13 12 11 10 9 8 7 7 8 8 8 9 10 11 10 10 11 10 8 8 10 9 9 12 13 12 12 13 13 14 14 15 16 16 17 19 20 22 23 23 22 24 25 26 25 24 23 23 23 24 24 24 24 24 24 24 24 25 26 28 28 29 29 30 30 30
19 17 17 18 18 17 15 14 13 12 12 11 10 9 8 8 9 9 9 9 9 9 8 8 9 9 8 8 9 9 9 11 13 13 14 14 15 15 16 16 16 16 16 19 21 22 23 24 23 22 22 23 22 22 23 23 21 21 20 19 18 18 18 18 19 19 21 22 23 25 26 26 27 27
20 20 19 19 18 17 16 15 14 13 13 12 11 11 10 9 9 9 9 9 9 8 8 8 8 8 8 8 9 10 10 11 12 13 14 14 14 15 16 16 17 16 16 18 19 20 21 22 22 21 21 21 21 22 23 21 18 15 15 15 16 16 16 17 18 18 20 21 22 23 24 24 24 23
22 21 21 20 19 18 16 15 14 14 14 14 13 12 11 9 9 9 8 7 7 7 6 6 6 7 7 8 8 9 10 11 12 13 13 14 14 15 15 16 16 16 15 16 17 18 19 19 19 19 20 20 20 21 21 20 17 15 15 17 18 19 19 20 20 21 22 23 24 24 24 24 23 20
21 20 20 20 20 19 18 17 17 16 16 16 14 12 10 9 8 8 7 6 5 4 4 3 4 5 6 7 9 10 11 12 12 13 13 13 13 13 14 15 16 15 15 15 16 17 17 17 16 17 17 17 18 20 19 19 18 18 18 19 20 21 21 21 22 22 22 23 23 23 23 24 22 19
17 17 18 18 19 19 19 19 18 17 14 13 11 9 7 6 5 4 4 3 3 2 3 4 5 7 8 9 9 10 10 10 11 12 12 13 13 13 13 15 15 15 15 15 15 15 16 16 15 15 16 16 17 18 18 19 19 20 21 22 22 21 21 20 20 20 20 20 20 20 21 21 21 21
15 16 16 17 17 17 16 14 13 12 9 8 7 6 4 3 2 2 3 3 4 4 5 6 7 8 9 9 10 10 10 11 11 12 12 13 13 12 12 13 14 14 13 13 13 13 14 14 13 13 14 15 16 17 18 21 22 22 24 25 25 22 20 19 18 18 18 18 17 18 18 18 19 21
13 14 13 13 13 12 10 8 7 6 5 4 3 2 1 1 1 2 3 4 4 5 5 6 7 8 9 10 10 11 11 11 11 11 11 11 11 10 9 10 11 12 12 11 11 11 11 11 11 11 12 13 15 17 19 21 23 23 22 22 22 21 19 17 17 17 17 16 16 17 18 17 16 18
7 8 7 7 7 7 6 4 3 3 3 3 2 1 0 1 2 3 4 4 5 6 6 6 7 7 8 9 10 10 11 11 10 10 9 9 9 9 8 8 8 9 10 10 11 10 10 10 10 10 11 12 13 15 17 19 21 21 20 19 20 20 19 18 18 17 17 16 15 15 16 15 14 17
7 6 5 4 5 5 4 4 4 5 5 4 3 2 1 1 3 4 5 5 6 6 6 6 6 7 7 8 9 8 8 8 8 7 7 7 8 8 8 8 8 8 8 9 10 10 10 10 10 10 10 11 12 14 15 15 17 19 20 20 19 19 18 17 16 17 17 16 14 14 15 14 15 17
9 8 6 5 6 6 6 5 6 6 4 4 3 1 1 2 3 4 5 5 5 5 5 5 5 6 6 5 5 5 5 5 6 7 7 7 8 8 9 9 9 9 9 9 10 10 9 9 9 10 10 11 11 13 13 13 14 15 17 18 17 17 16 15 15 14 14 14 13 12 12 12 14 15
8 7 6 6 6 6 5 4 3 3 2 3 3 3 3 4 4 5 5 5 5 4 4 4 3 2 1 1 2 3 4 5 7 8 8 9 9 9 9 9 9 9 9 9 9 9 8 7 7 7 7 8 10 11 12 13 13 14 15 16 16 16 15 15 14 13 12 11 9 6 6 8 8 9
7 7 6 5 5 3 2 1 1 2 3 4 4 4 4 4 5 5 4 4 4 3 2 1 1 2 3 3 4 4 5 6 7 8 9 9 9 9 9 9 9 8 7 7 7 7 7 7 6 5 5 6 8 9 11 13 13 13 14 15 14 14 14 13 13 12 10 8 6 5 6 7 7 6
6 5 3 3 3 1 1 2 2 3 4 4 4 4 4 4 3 3 2 2 1 2 3 4 4 5 5 5 5 6 6 6 6 7 7 8 9 9 9 9 8 8 7 7 8 8 9 9 9 9 8 8 8 8 10 12 14 14 13 12 11 11 12 12 11 9 8 7 7 7 7 5 4 4
1 2 2 1 1 1 2 3 4 4 4 4 4 4 4 4 4 4 4 5 6 6 6 6 6 6 6 6 6 5 5 6 6 7 7 8 8 8 7 7 6 6 7 8 9 9 9 10 11 11 11 11 11 10 9 9 11 12 12 11 9 8 9 9 9 8 8 8 7 7 6 5 6 6
1 2 2 3 3 3 3 2 3 3 3 4 4 4 5 6 7 8 8 8 7 7 7 6 6 6 6 6 6 6 6 7 7 7 8 8 8 8 8 8 8 7 8 8 9 10 10 11 12 12 12 13 13 11 9 8 9 11 10 10 8 7 7 7 7 7 7 7 7 7 7 6 7 6
2 3 4 4 4 3 2 2 3 4 5 6 6 7 7 8 9 9 9 8 7 7 6 6 6 6 6 6 6 7 7 8 8 8 9 9 10 10 11 11 11 12 11 11 10 10 9 9 9 10 11 12 11 11 11 10 9 9 9 9 9 9 8 8 7 7 8 7 7 7 6 6 5 5
4 4 5 4 4 3 3 4 5 6 7 8 9 9 9 10 9 9 8 7 7 6 5 5 6 6 6 7 8 8 8 9 9 10 10 10 11 12 12 12 12 12 11 11 10 9 8 8 8 10 11 11 10 10 10 10 9 8 8 9 9 9 9 8 7 7 7 7 6 5 4 4 4 5
6 5 4 4 4 5 6 7 8 8 9 10 10 10 10 9 8 8 7 7 6 6 5 6 7 7 8 9 9 9 10 10 10 10 10 10 11 11 12 12 12 12 11 11 11 11 11 10 10 12 13 12 10 9 10 11 10 7 7 7 8 8 8 7 6 6 7 7 5 4 4 5 6 6
4 3 4 6 7 8 9 9 10 10 10 11 10 10 9 8 8 7 7 7 7 6 7 7 8 9 9 9 9 9 10 10 10 11 11 12 11 11 11 12 12 11 11 12 12 13 13 13 12 13 14 12 11 9 9 10 11 10 7 5 5 6 7 7 6 7 7 7 5 4 5 6 7 7
3 4 7 9 10 11 11 11 11 10 10 10 10 9 8 7 8 8 8 7 7 7 8 8 9 10 10 10 9 9 9 10 10 11 12 13 12 11 10 10 10 10 11 11 11 12 13 13 14 14 12 12 12 11 9 9 12 11 7 4 4 6 7 8 8 8 7 6 5 5 5 6 6 7
6 8 11 12 13 12 12 11 11 10 10 9 9 8 8 8 8 8 8 8 8 9 9 9 10 10 10 10 10 10 11 11 11 11 12 12 12 10 9 9 9 8 9 10 11 11 12 14 15 15 13 12 13 12 9 9 10 9 7 5 6 6 7 8 8 7 6 4 4 5 5 4 5 7
9 12 13 13 12 11 11 10 10 9 9 9 9 9 9 9 9 8 8 8 9 9 9 9 9 9 10 10 11 11 11 12 11 11 10 10 10 10 9 9 9 9 9 10 11 13 14 13 13 13 13 12 13 12 11 10 10 9 7 6 5 5 6 7 7 6 6 6 4 4 5 5 6 8
Wind_Direction
216 215 214 216 217 218 221 226 228 224 224 228 226 227 236 236 227 218 219 228 227 220 216 211 205 201 193 189 188 190 196 199 200 196 187 192 215 224 225 224 222 220 225 237 241 219 184 161 142 124 110 96 78 58 42 32 28 27 27 28 30 31 29 25 21 17 16 15 13 10 6 4 2 360
217 215 215 217 218 218 221 225 224 221 223 224 223 229 237 239 238 235 237 245 241 229 224 213 201 201 200 198 195 194 199 203 205 205 198 192 205 223 231 233 232 232 237 247 249 233 208 191 173 151 133 114 82 38 17 8 7 10 13 15 17 16 11 6 2 0 359 358 357 356 355 355 355 356
217 216 213 215 218 218 221 225 224 222 224 223 222 228 232 231 235 240 245 251 250 241 228 208 198 198 199 203 202 200 203 205 207 211 211 207 207 218 231 236 237 237 241 250 254 245 226 214 206 193 189 197 238 297 314 319 328 340 349 355 357 354 350 346 343 341 339 337 337 337 337 338 342 346
215 215 212 213 218 220 221 224 225 224 225 225 225 226 228 228 231 235 238 242 244 253 220 189 192 195 198 204 206 205 207 210 214 218 221 221 219 220 228 236 239 239 241 246 250 248 238 228 222 219 221 231 245 260 272 281 290 301 313 322 326 328 329 329 329 327 325 324 323 324 326 329 332 336
214 214 213 213 217 220 222 224 224 224 227 228 228 227 225 225 229 233 233 235 236 239 220 186 189 194 199 203 202 203 208 214 220 222 224 227 228 227 229 236 240 241 242 244 246 247 243 237 231 229 233 240 249 257 263 269 275 283 290 297 302 307 312 314 315 316 316 316 315 317 321 324 327 329
213 215 215 214 217 217 218 220 222 223 226 229 228 226 225 225 228 232 233 233 233 232 228 211 200 201 204 205 203 204 208 216 224 226 226 230 233 233 235 238 240 241 242 243 243 244 244 242 239 237 239 244 250 256 260 264 268 274 279 285 289 294 298 302 304 306 308 309 309 310 313 316 320 322
214 217 217 217 220 219 215 215 218 221 224 226 227 227 229 229 231 232 233 233 231 228 229 229 220 215 214 213 208 206 210 217 225 228 228 231 233 235 238 241 240 241 242 242 242 243 244 245 244 242 242 245 248 254 259 262 265 269 273 277 282 286 291 294 298 301 302 303 303 304 305 307 310 313
217 217 218 219 222 224 220 215 216 219 221 224 226 228 230 233 234 235 234 234 232 230 231 233 231 229 229 228 222 216 215 219 225 229 230 231 233 234 238 241 241 241 242 242 242 242 244 246 247 246 245 245 246 250 256 260 264 267 271 275 279 283 287 290 293 296 298 299 299 299 299 299 300 302
222 221 220 220 221 223 223 220 219 222 224 225 227 229 230 232 234 236 236 235 232 229 230 234 237 238 238 238 234 228 225 226 230 233 234 235 237 238 239 238 238 238 240 240 240 242 243 246 248 250 250 250 250 253 257 261 264 268 271 275 279 282 285 288 290 292 294 295 296 296 296 296 295 295
223 223 222 220 220 222 223 223 224 225 226 227 228 230 230 231 232 236 238 235 231 228 228 231 236 239 241 245 246 240 234 232 234 237 240 243 244 245 243 237 234 235 236 237 239 243 245 249 252 254 255 255 255 256 260 263 267 270 274 278 281 284 286 288 289 290 291 292 292 293 294 294 294 293
223 224 222 218 219 221 223 226 227 228 229 228 229 231 232 233 234 235 237 235 231 229 227 226 229 235 242 250 253 249 241 237 237 238 241 243 244 246 246 241 237 237 239 243 247 251 255 258 261 263 263 263 262 262 265 268 271 274 277 281 283 285 286 287 288 288 289 289 290 290 291 291 291 291
220 222 221 218 218 222 225 227 229 229 230 230 230 231 232 233 233 234 237 237 234 231 229 228 230 235 243 252 253 246 240 239 238 238 239 242 243 246 249 249 248 248 251 255 259 262 265 267 270 272 273 273 273 273 273 274 276 278 280 282 283 284 285 285 286 286 286 286 287 287 287 287 286 286
216 217 218 217 217 222 225 225 227 230 231 232 233 233 233 234 236 235 236 238 237 234 232 231 233 237 245 251 248 239 236 239 242 242 241 241 242 246 252 254 257 260 262 265 267 268 272 274 276 278 277 276 277 276 275 275 276 277 278 280 281 282 283 284 285 285 286 286 286 286 285 284 282 282
215 213 213 213 215 220 223 225 230 235 237 238 239 238 236 237 239 239 238 239 239 237 234 232 234 239 245 246 240 235 236 240 246 247 245 244 245 249 255 258 260 264 268 272 273 274 277 280 279 279 278 277 277 277 276 276 277 277 277 279 280 281 283 284 284 285 286 287 287 287 286 282 280 281
214 211 210 210 212 215 217 222 229 234 235 236 238 239 237 234 234 236 237 240 240 237 232 230 231 236 243 242 237 237 239 241 246 249 248 248 249 251 257 261 265 267 270 273 274 272 274 276 273 271 271 271 272 274 276 277 277 277 278 279 280 281 282 282 282 283 284 285 287 288 287 283 282 284
214 211 210 210 209 209 212 220 228 231 230 230 232 236 239 237 235 236 238 241 241 236 230 227 228 233 238 239 238 240 241 242 248 251 251 252 252 254 258 263 269 272 272 272 271 266 266 269 270 268 268 270 273 275 277 278 278 279 280 281 281 281 281 282 282 283 284 286 286 286 285 283 283 282
211 209 209 208 206 208 216 225 230 230 229 230 232 238 243 241 239 239 239 240 240 234 226 225 230 236 238 238 239 241 243 246 250 251 252 253 255 258 260 262 267 269 270 271 270 265 264 269 273 273 273 276 278 279 279 280 280 282 282 283 284 283 283 284 284 285 286 285 284 282 282 282 282 280
208 207 208 207 207 211 220 227 229 228 227 228 231 237 242 244 244 242 239 237 236 232 228 227 230 235 239 239 241 243 244 247 249 250 251 253 255 258 260 261 263 265 269 273 275 273 271 273 277 278 279 281 281 281 281 282 283 284 285 285 285 285 284 284 284 283 283 282 280 280 282 282 282 280
208 209 209 208 208 213 216 218 222 222 218 218 224 231 240 246 247 243 238 233 231 232 233 229 226 229 235 237 240 242 244 246 249 249 251 252 254 255 257 261 267 273 278 279 280 281 281 281 282 283 284 284 283 284 286 286 287 287 287 287 286 285 284 283 283 282 280 278 279 280 281 282 281 279
209 210 210 208 208 210 211 211 214 216 213 212 216 221 228 234 236 235 233 229 225 223 224 224 222 224 229 231 233 235 236 239 241 243 244 245 250 257 262 267 273 278 280 280 282 285 286 285 285 286 287 287 287 289 290 291 290 290 289 287 286 284 284 283 282 281 280 280 282 282 281 281 280 278
209 209 210 211 210 208 209 210 212 214 216 217 218 219 217 221 228 232 229 224 220 210 204 205 206 209 211 214 217 218 221 228 233 238 245 250 259 267 271 273 275 277 279 279 282 284 286 286 286 287 289 289 290 292 293 293 293 292 291 290 288 287 286 285 283 283 283 283 282 281 279 279 279 279
208 207 207 207 205 204 207 211 213 217 223 226 226 224 219 221 227 230 224 220 223 222 216 215 222 222 215 220 231 233 239 251 257 262 268 273 276 276 276 278 280 282 283 283 283 284 286 289 290 292 294 295 295 297 297 297 297 296 296 296 295 294 292 290 288 287 285 284 281 279 278 279 282 282
202 199 196 195 196 200 206 210 214 220 225 226 223 216 212 216 218 219 218 217 222 229 230 233 243 248 249 253 260 266 268 271 280 287 286 286 289 288 288 287 288 290 289 288 290 291 292 295 298 300 303 304 304 304 303 303 304 303 302 302 300 298 296 294 292 289 286 284 282 281 281 282 283 281
203 198 196 195 198 204 209 212 215 217 217 216 213 205 203 208 206 204 207 208 212 220 226 231 242 254 262 265 269 275 275 276 283 288 289 291 292 292 293 293 292 293 292 291 293 295 297 299 302 304 305 305 305 304 304 307 310 309 307 305 302 299 295 293 291 290 288 287 287 286 285 283 282 281
205 202 201 202 205 208 211 213 214 211 205 201 199 196 196 199 197 195 197 201 205 214 223 232 244 255 262 266 271 276 279 282 285 287 289 292 291 291 292 292 292 294 295 295 296 297 298 301 303 302 299 297 297 300 304 310 314 311 306 303 300 297 294 292 291 290 290 290 289 288 287 285 284 282
204 202 201 202 202 202 202 202 202 201 197 192 191 192 193 195 194 192 193 196 201 210 218 226 235 244 254 263 270 276 281 286 290 292 294 295 295 295 295 294 295 298 299 299 299 299 299 301 300 299 297 296 298 301 306 311 311 306 302 301 301 300 299 298 297 293 289 287 286 287 287 284 282 280
200 199 198 197 195 192 190 189 188 189 190 191 189 187 188 189 189 188 189 189 194 205 219 236 254 266 275 281 285 289 292 294 296 297 297 297 298 300 300 299 300 303 304 303 301 300 301 302 302 300 298 298 299 302 305 305 303 302 302 301 302 304 304 303 301 297 292 289 290 291 290 288 284 273
194 196 196 195 194 192 188 187 188 187 186 187 187 185 183 178 173 172 178 188 206 237 273 289 296 297 296 295 296 296 297 299 301 301 301 301 303 305 305 304 303 305 306 304 302 301 301 303 304 302 299 297 297 299 301 299 300 302 301 300 301 304 305 305 303 301 298 296 298 296 293 292 285 266
189 192 191 191 193 193 189 185 185 183 179 180 184 186 185 177 174 197 224 240 255 273 288 294 298 300 301 301 301 301 301 302 303 305 306 307 308 311 311 309 307 306 306 304 303 303 303 303 303 300 297 296 294 294 296 297 299 303 304 304 304 304 304 304 304 304 303 302 303 303 300 297 285 266
179 183 184 183 186 190 186 175 169 171 172 172 170 171 207 256 243 235 240 252 269 282 288 289 292 295 297 299 299 299 300 301 302 305 306 306 308 312 313 313 311 310 310 311 311 310 309 309 307 300 292 289 289 291 296 300 303 307 310 313 313 312 311 308 306 306 305 304 306 311 311 303 281 259
156 162 165 164 165 169 171 165 150 144 146 141 124 102 295 282 276 259 254 264 278 285 289 292 294 295 295 295 297 299 303 305 307 309 311 311 313 316 320 323 322 322 323 324 324 323 321 319 315 308 299 292 291 296 304 310 314 317 320 324 325 324 323 319 312 307 304 303 308 316 318 305 273 245
96 98 99 105 108 112 122 127 119 116 122 125 120 115 148 238 258 262 266 274 278 280 283 286 289 294 297 299 302 306 310 313 317 323 330 332 333 338 340 338 336 337 336 333 331 329 326 323 320 314 308 303 303 307 312 317 318 319 321 324 327 331 332 328 322 314 308 308 314 321 320 301 265 242
86 85 82 82 81 83 91 97 97 96 92 88 83 72 314 287 282 281 282 284 283 284 289 290 294 300 304 305 312 321 330 336 342 350 356 357 357 356 351 346 344 344 341 337 333 329 325 321 318 316 314 313 314 316 320 323 324 324 326 327 330 335 337 334 331 327 322 319 321 326 326 308 277 257
90 94 96 93 86 81 79 75 65 46 8 339 320 306 296 288 283 283 285 289 298 304 310 312 316 323 334 354 7 7 6 7 6 4 3 2 1 358 353 350 349 346 340 334 327 323 322 319 316 318 321 325 327 327 328 332 337 340 340 336 335 340 343 343 343 344 341 336 332 338 358 354 328 301
110 110 106 104 100 91 68 13 334 295 277 272 267 264 259 254 256 264 270 277 288 297 306 332 70 93 88 69 52 38 26 19 13 5 1 357 356 356 355 353 352 350 349 347 343 344 347 346 342 337 327 324 331 335 334 338 345 349 346 342 341 345 348 350 352 354 355 358 3 13 30 30 13 357
112 115 112 115 127 148 222 241 234 227 228 228 224 221 219 218 220 227 226 207 176 131 113 107 101 91 78 64 53 42 29 20 12 5 1 359 358 359 0 1 4 9 13 15 16 12 7 2 360 360 356 351 355 358 354 350 350 351 352 351 350 350 348 348 352 356 359 5 10 12 15 11 348 330
128 146 153 169 204 233 244 234 223 214 208 200 190 182 170 157 148 137 120 109 105 101 97 90 81 73 64 55 47 37 27 22 16 12 10 8 7 7 7 8 15 20 20 17 14 10 7 4 1 359 358 357 359 4 8 2 355 355 357 0 3 1 352 347 349 352 352 352 354 356 356 344 325 317
245 227 259 284 277 270 262 236 206 183 164 148 131 123 120 117 114 108 101 98 95 89 83 75 67 61 55 47 41 37 32 28 23 19 19 18 18 20 21 20 18 16 14 12 8 4 2 359 354 352 354 355 353 349 348 349 352 356 358 1 5 3 351 345 346 349 350 349 346 341 332 320 312 306
252 271 282 283 271 257 237 188 154 139 130 123 116 113 111 110 106 102 98 95 90 83 77 72 66 60 53 49 46 42 38 34 30 31 33 34 33 32 29 25 20 17 16 15 11 4 357 352 351 355 360 1 357 349 341 335 336 340 344 349 353 350 343 340 339 344 349 351 349 347 340 327 320 320
278 287 276 259 240 215 181 155 141 133 128 123 117 112 107 104 101 99 96 93 89 85 82 77 70 62 56 53 50 46 44 44 45 46 46 46 45 40 35 31 27 26 27 26 21 17 10 5 8 12 9 5 3 1 357 351 340 331 333 341 343 340 339 341 342 345 350 351 353 3 8 356 350 350
286 277 248 213 184 162 149 142 136 130 123 117 112 109 106 104 103 102 101 100 97 93 86 77 69 64 60 57 55 54 54 53 53 53 49 47 46 43 41 40 37 36 38 36 31 28 24 19 16 14 10 7 7 6 7 9 7 357 344 340 339 336 338 345 351 350 347 348 352 0 5 4 5 4
268 231 182 158 146 141 137 134 131 126 119 113 109 107 106 106 107 106 105 105 101 93 84 77 71 66 65 64 65 66 66 62 57 52 46 44 45 46 44 43 41 38 35 33 30 27 24 22 18 12 7 7 9 7 5 8 11 10 5 354 348 348 349 353 353 345 343 352 9 19 18 20 22 19
192 161 146 136 132 132 131 129 124 120 115 112 110 109 108 110 111 110 109 106 100 93 85 78 73 71 73 75 74 72 71 68 60 54 49 44 44 47 45 42 40 35 27 24 26 25 22 22 19 12 7 9 12 10 6 3 6 13 27 36 18 4 359 354 348 343 346 2 21 26 22 22 19 12
146 138 132 129 128 128 128 125 122 118 116 115 115 115 114 113 112 112 111 109 105 101 94 83 76 75 77 79 76 73 71 67 61 58 53 46 44 47 45 38 34 28 18 18 25 26 20 17 14 10 9 15 18 20 27 27 21 24 40 45 29 15 356 343 340 345 354 4 8 4 356 351 355 354
133 132 129 127 128 129 128 126 124 122 120 118 116 114 112 112 112 113 113 113 112 111 105 94 86 81 78 75 73 68 63 60 59 59 55 47 41 40 39 34 34 32 25 25 32 28 19 13 13 14 18 25 29 34 43 43 34 31 32 21 9 1 354 350 351 353 349 337 320 318 327 332 340 345